User: anonymous   Login
Location: Brno
(49.2000°N, 16.6330°E)
Time: 11:21:46
(UTC+01:00)
Language:

Cosmos 332 Rocket - Orbit

View from above orbital plane
View from above orbital plane
View from above satellite
View from above satellite

Ground track
Ground track

The orbit data is extracted from the following two-line orbital elements,

1 04370U 70028B   15063.09009770  .00000644  00000-0  14188-3 0  9997
2 04370 074.0380 243.5189 0015360 010.7384 349.4106 14.59446810889989
Epoch (UTC): 04 March 2015 02:09:44
Eccentricity: 0.0015360
inclination: 74.0380°
perigee height: 684 km
apogee height: 706 km
right ascension of ascending node: 243.5189°
argument of perigee: 10.7384°
revolutions per day: 14.59446810
mean anomaly at epoch: 349.4106°
orbit number at epoch: 88998

The dashed part of the orbit path shows where the satellite is in the earth's shadow,  

DLR